Hourly Data Report for September 22, 2017

All times are specified in Local Standard Time (LST). Add 1 hour to adjust for Daylight Saving Time where and when it is observed.

GJOA HAVEN A
NUNAVUT

68°38'08.000" N
95°51'01.000" W
46.90 m
2302337
71597
YHK

Related Data

No related data is available for this station

Download Data

Hourly Data (September 2017)
Hourly Data Report for September 22, 2017
Temp Definition
°C
Dew Point Temp Definition
°C
Rel Hum Definition
%
Wind Dir Definition
10's deg

Wind Spd Definition
km/h
Visibility Definition
km
Stn Press Definition
kPa
Hmdx Definition


Wind Chill Definition


Weather Definition


TIME
00:00 Legend Double Dagger -3.2 -3.6 97 35 9 9.7 101.91   -7 Snow
01:00 Legend Double Dagger -3.5 -3.8 98 34 11 11.3 101.92   -8 Snow
02:00 Legend Double Dagger -4.5 -4.6 99 31 11 9.7 101.91   -9 Snow
03:00 Legend Double Dagger -4.9 -5.0 99 34 15 2.0 101.93   -10 Snow
04:00 Legend Double Dagger -3.8 -3.9 99 34 18 16.1 101.91   -10 Snow
05:00 Legend Double Dagger -4.7 -4.8 99 36 15 6.4 101.89   -10 Fog
06:00 Legend Double Dagger -4.8 -4.9 99 34 13 0.8 101.90   -10 Moderate Snow
07:00 Legend Double Dagger -4.3 -4.4 99 36 15 1.6 101.88   -10 Fog
08:00 Legend Double Dagger -4.0 -4.1 99 32 11 11.3 101.87   -8 Snow
09:00 Legend Double Dagger -4.0 -4.1 99 34 13 11.3 101.86   -9 Snow
10:00 Legend Double Dagger -3.9 -4.0 99 34 11 9.7 101.88   -8 Snow
11:00 Legend Double Dagger -3.5 -3.6 99 30 9 14.5 101.88   -7 LegendNANA
12:00 Legend Double Dagger -2.4 -2.5 99 30 9 16.1 101.88   -6 Snow
13:00 Legend Double Dagger -1.9 -2.2 98 33 17 16.1 101.86   -7 LegendNANA
14:00 Legend Double Dagger -1.8 -2.9 92 31 8 16.1 101.86   -5 LegendNANA
15:00 Legend Double Dagger -1.7 -2.8 92 34 15 16.1 101.86   -7 LegendNANA
16:00 Legend Double Dagger -2.3 -3.3 93 33 11 12.9 101.84   -6 Snow
17:00 Legend Double Dagger -2.8 -3.5 95 34 13 16.1 101.86   -7 Snow
18:00 Legend Double Dagger -3.1 -3.8 95 33 13 16.1 101.87   -8 Snow
19:00 Legend Double Dagger -3.4 -3.8 97 33 13 16.1 101.85   -8 Snow
20:00 Legend Double Dagger -3.7 -3.8 99 34 13 6.4 101.84   -9 Snow
21:00 Legend Double Dagger -3.9 -3.9 100 34 13 14.5 101.81   -9 Snow
22:00 Legend Double Dagger -4.4 -4.5 99 30 15 14.5 101.84   -10 Snow
23:00 Legend Double Dagger -4.7 -4.8 99 32 18 16.1 101.84   -11 Snow

Notes on Data Quality.

Legend

  • E = Estimated
  • M = Missing
  • NA = Not Available
  • ‡ = Partner data that is not subject to review by the National Climate Archives
Date modified: